sat.trackr.live / text

‹ back to catalog

VIASAT-3 F2

NORAD 66454 · 2025-261A

PAYLOAD ACTIVE UNKNOWN

§ Identity

Operator
Country
US
Launch date
2025-11-14
Launch site
AFETR
Launch vehicle
Mass (kg)
RCS (m²)

Purposes: comms

External: N2YO · Heavens-Above · Gunter

§ Orbital elements

Epoch: 2026-05-24T23:30:38.519136Z

Period
1,436.10 min
Inclination
0.0259°
Eccentricity
0.0000583
Mean motion
1.00271530 rev/d
Perigee alt
35,784.2 km
Apogee alt
35,789.1 km
Semi-major
42,164.8 km
B*
0.0000e+0
RAAN
196.8864°
Arg perigee
234.4647°
Mean anomaly
84.9172°
Rev number
256

§ Raw data

VIASAT-3 F21 66454U 25261A   26144.97961249 -.00000236  00000+0  00000+0 0  99952 66454   0.0259 196.8864 0000583 234.4647  84.9172  1.00271530  2564

JSON: /api/v1/satellites/66454 · /tle

For live sub-satellite position, see the globe view (requires WebGL).

§ Visibility from observer

Set your observer location to see the next 7 days of passes ≥ 10°. The values pass through the URL so the page stays shareable.

No JS? Fill the form by hand. The geolocation button needs JavaScript.